Puyallup, WA
on Saturday, December 29, 2012

Saturday
Previous Day Next Day
Daily Summary
 ActualAverage (KSEA)Record (KSEA)
Temperature
Mean Temperature °F 40°F  
Max Temperature 41°F 45°F 54°F (1949)
Min Temperature 33°F 36°F 8°F (1968)
Degree Days
Heating Degree Days 28 24  
Month to date heating degree days 709  
Since 1 July heating degree days 1892  
Cooling Degree Days 0 0  
Month to date cooling degree days 0  
Year to date cooling degree days 189  
Moisture
Dew Point 37°F   
Average Humidity 98    
Maximum Humidity 100    
Minimum Humidity 76    
Precipitation
Precipitation 0.06 in 0.16 in 1.92 in (1996)
Month to date precipitation 5.03  
Year to date precipitation 37.17  
Snow
Snow 0.00 in in 2.10 in (1971)
Month to date snowfall  
Since 1 July snowfall  
Snow Depth in   
Wind
Wind Speed 0 mph   
Max Wind Speed 0 mph   
Max Gust Speed mph   
Visibility 8 miles   
Events Rain   

Key: T is trace of precipitation, MM is missing value
Source: NWS Daily Summary
Time(PST)TemperatureDew PointHumidity Pressure Visibility Wind DirectionWind SpeedGust SpeedPrecipitationEvents Conditions
12:15 AM 33.8°F 33.8°F 100% 30.15 in 3.0 miles Calm Calm - N/A   Clear
12:35 AM 35.6°F 35.6°F 100% 30.16 in 5.0 miles Calm Calm - N/A   Clear
12:55 AM 35.6°F 35.6°F 100% 30.16 in 5.0 miles Calm Calm - N/A   Clear
1:15 AM 35.6°F 35.6°F 100% 30.16 in 7.0 miles Calm Calm - N/A   Clear
1:35 AM 35.6°F 35.6°F 100% 30.16 in 9.0 miles Calm Calm - N/A   Clear
1:55 AM 33.8°F 33.8°F 100% 30.16 in 5.0 miles Calm Calm - N/A   Clear
2:15 AM 33.8°F 33.8°F 100% 30.17 in 2.5 miles Calm Calm - N/A   Clear
2:35 AM 35.6°F 35.6°F 100% 30.17 in 7.0 miles Calm Calm - N/A   Clear
2:55 AM 35.6°F 35.6°F 100% 30.17 in 7.0 miles Calm Calm - N/A   Clear
3:15 AM 35.6°F 35.6°F 100% 30.18 in 7.0 miles Calm Calm - N/A   Clear
3:35 AM 35.6°F 35.6°F 100% 30.18 in 7.0 miles Calm Calm - N/A   Partly Cloudy
3:55 AM 35.6°F 35.6°F 100% 30.17 in 5.0 miles Calm Calm - N/A   Partly Cloudy
4:15 AM 35.6°F 35.6°F 100% 30.17 in 7.0 miles Calm Calm - N/A   Scattered Clouds
4:35 AM 35.6°F 35.6°F 100% 30.17 in 5.0 miles Calm Calm - N/A   Scattered Clouds
4:55 AM 35.6°F 35.6°F 100% 30.17 in 6.0 miles Calm Calm - N/A   Partly Cloudy
5:15 AM 35.6°F 35.6°F 100% 30.17 in 7.0 miles Calm Calm - N/A   Clear
5:35 AM 35.6°F 35.6°F 100% 30.17 in 7.0 miles Calm Calm - N/A   Scattered Clouds
5:55 AM 35.6°F 35.6°F 100% 30.17 in 7.0 miles Calm Calm - N/A   Scattered Clouds
6:15 AM 35.6°F 35.6°F 100% 30.17 in 7.0 miles Calm Calm - N/A   Overcast
6:35 AM 35.6°F 35.6°F 100% 30.17 in 7.0 miles Calm Calm - N/A   Overcast
6:55 AM 35.6°F 35.6°F 100% 30.17 in 9.0 miles Calm Calm - N/A   Overcast
7:15 AM 35.6°F 35.6°F 100% 30.17 in 10.0 miles Calm Calm - N/A   Mostly Cloudy
7:35 AM 35.6°F 35.6°F 100% 30.16 in 8.0 miles Calm Calm - N/A   Mostly Cloudy
7:55 AM 35.6°F 35.6°F 100% 30.17 in 9.0 miles Calm Calm - N/A   Scattered Clouds
8:15 AM 35.6°F 35.6°F 100% 30.17 in 8.0 miles Calm Calm - N/A   Clear
8:35 AM 35.6°F 35.6°F 100% 30.17 in 7.0 miles Calm Calm - N/A   Clear
8:55 AM 35.6°F 35.6°F 100% 30.18 in 8.0 miles Calm Calm - N/A   Clear
9:15 AM 37.4°F 37.4°F 100% 30.18 in 9.0 miles Calm Calm - N/A   Scattered Clouds
9:35 AM 37.4°F 37.4°F 100% 30.19 in 10.0 miles Calm Calm - N/A   Mostly Cloudy
9:55 AM 39.2°F 39.2°F 100% 30.19 in 10.0 miles Calm Calm - N/A   Mostly Cloudy
10:15 AM 39.2°F 37.4°F 93% 30.20 in 10.0 miles Calm Calm - N/A   Partly Cloudy
10:35 AM 39.2°F 37.4°F 93% 30.19 in 10.0 miles Calm Calm - N/A   Clear
10:55 AM 39.2°F 39.2°F 100% 30.18 in 9.0 miles Calm Calm - N/A   Partly Cloudy
11:15 AM 39.2°F 39.2°F 100% 30.17 in 10.0 miles Calm Calm - N/A   Scattered Clouds
11:35 AM 41.0°F 39.2°F 93% 30.16 in 10.0 miles Calm Calm - N/A   Scattered Clouds
11:55 AM 41.0°F 39.2°F 93% 30.15 in 10.0 miles Calm Calm - N/A   Scattered Clouds
12:15 PM 41.0°F 39.2°F 93% 30.15 in 10.0 miles Calm Calm - N/A   Scattered Clouds
12:35 PM 41.0°F 39.2°F 93% 30.15 in 10.0 miles Calm Calm - N/A   Partly Cloudy
12:55 PM 41.0°F 39.2°F 93% 30.15 in 10.0 miles Calm Calm - N/A Rain Light Rain
1:15 PM 41.0°F 39.2°F 93% 30.15 in 10.0 miles Calm Calm - N/A Rain Light Rain
1:35 PM 41.0°F 37.4°F 87% 30.14 in 10.0 miles Calm Calm - N/A   Scattered Clouds
1:55 PM 41.0°F 33.8°F 76% 30.14 in 8.0 miles Calm Calm - N/A Rain Light Rain
2:15 PM 39.2°F 37.4°F 93% 30.14 in 8.0 miles Calm Calm - N/A Rain Light Rain
2:35 PM 39.2°F 37.4°F 93% 30.14 in 5.0 miles Calm Calm - 0.01 in Rain Light Rain
3:15 PM 37.4°F 35.6°F 93% 30.15 in 5.0 miles Calm Calm - 0.01 in Rain Light Rain
3:35 PM 37.4°F 37.4°F 100% 30.15 in 5.0 miles Calm Calm - 0.03 in Rain Light Rain
3:55 PM 37.4°F 37.4°F 100% 30.15 in 8.0 miles Calm Calm - 0.05 in Rain Light Rain
4:15 PM 37.4°F 37.4°F 100% 30.15 in 5.0 miles Calm Calm - N/A Rain Light Rain
4:35 PM 37.4°F 37.4°F 100% 30.15 in 10.0 miles Calm Calm - N/A Rain Light Rain
4:55 PM 37.4°F 37.4°F 100% 30.16 in 9.0 miles Calm Calm - N/A   Partly Cloudy
5:15 PM 37.4°F 37.4°F 100% 30.15 in 7.0 miles Calm Calm - N/A   Partly Cloudy
5:35 PM 37.4°F 37.4°F 100% 30.16 in 10.0 miles Calm Calm - N/A   Mostly Cloudy
5:55 PM 35.6°F 35.6°F 100% 30.15 in 10.0 miles Calm Calm - N/A   Mostly Cloudy
6:55 PM 37.4°F 37.4°F 100% 30.16 in 7.0 miles Calm Calm - N/A   Scattered Clouds
7:15 PM 37.4°F 37.4°F 100% 30.17 in 7.0 miles Calm Calm - N/A   Mostly Cloudy
7:35 PM 37.4°F 37.4°F 100% 30.17 in 8.0 miles Calm Calm - N/A   Mostly Cloudy
7:55 PM 37.4°F 37.4°F 100% 30.17 in 10.0 miles Calm Calm - N/A   Mostly Cloudy
8:15 PM 37.4°F 37.4°F 100% 30.17 in 10.0 miles Calm Calm - N/A   Mostly Cloudy
8:35 PM 37.4°F 37.4°F 100% 30.18 in 9.0 miles Calm Calm - N/A   Mostly Cloudy
8:55 PM 37.4°F 37.4°F 100% 30.18 in 10.0 miles Calm Calm - N/A   Overcast
9:15 PM 37.4°F 37.4°F 100% 30.18 in 5.0 miles Calm Calm - N/A   Mostly Cloudy
9:35 PM 37.4°F 37.4°F 100% 30.19 in 7.0 miles Calm Calm - N/A   Mostly Cloudy
9:55 PM 37.4°F 37.4°F 100% 30.20 in 5.0 miles Calm Calm - N/A   Mostly Cloudy
10:15 PM 37.4°F 37.4°F 100% 30.20 in 5.0 miles Calm Calm - N/A   Mostly Cloudy
10:55 PM 35.6°F 35.6°F 100% 30.21 in 6.0 miles Calm Calm - N/A   Overcast
11:15 PM 37.4°F 37.4°F 100% 30.22 in 5.0 miles North - - N/A   Mostly Cloudy
11:35 PM 37.4°F 37.4°F 100% 30.22 in 6.0 miles North - - N/A   Mostly Cloudy
11:55 PM 35.6°F 35.6°F 100% 30.23 in 4.0 miles North - - N/A   Overcast
Moon Phase
Dec. 29 Jan. 04 Jan. 11 Jan. 18 Jan. 26
Sunrise:07:55 AM (PST) Moon Rise:06:13 PM (PST)12/29
Sunset:04:28 PM (PST) Moon Set:08:25 AM (PST)12/29

Copyright © 2014 The Weather Underground, Inc.